Weather History for PANN - October, 2013

Change the Weather History Date:

Thursday, October 3, 2013

  Actual Average Record
Temperature  
Mean Temperature 42 °F -  
Max Temperature 52 °F 41 °F 65 °F (1993)
Min Temperature 32 °F 26 °F 19 °F (2008)
Degree Days  
Heating Degree Days 23    
Moisture  
Dew Point 34 °F    
Average Humidity 78    
Maximum Humidity 96    
Minimum Humidity 56    
Precipitation  
Precipitation 0.35 in - - ()
Sea Level Pressure  
Sea Level Pressure 29.78 in    
Wind  
Wind Speed 4 mph (ENE)    
Max Wind Speed 30 mph    
Max Gust Speed -    
Visibility 10 miles    
Events Rain    
Averages and records for this station are not official NWS values.
T = Trace of Precipitation, MM = Missing Value Source: NWS Daily Summary

Daily Weather History Graph

Daily Weather History Graph

Search for Another Location

Airport or City:

Trip Planner

Search our weather history database for the weather conditions in past years. The results will help you decide how hot, cold, wet, or windy it might be!

Date:

Astronomy

Oct. 03, 2013 Rise Set
Actual Time 8:12 AM AKDT 7:15 PM AKDT
Civil Twilight 7:24 AM AKDT 8:04 PM AKDT
Nautical Twilight 6:27 AM AKDT 9:00 PM AKDT
Astronomical Twilight 5:26 AM AKDT 10:00 PM AKDT
Moon 6:42 AM AKDT (10/3) 6:33 PM AKDT (10/3)
Length of Visible Light 12h 39m
Length of Day
11h 03m
Waning Crescent, 2% of the Moon is Illuminated
Oct 3
Waning Crescent
Oct 4
New
Oct 11
First Quarter
Oct 18
Full
Oct 26
Last Quarter

Hourly Weather History & Observations

Time (AKDT) Temp. Windchill Dew Point Humidity Pressure Visibility Wind Dir Wind Speed Gust Speed Precip Events Conditions
12:53 AM 30.0 °F - 28.0 °F 92% 29.84 in 10.0 mi Calm Calm - N/A   Clear
1:53 AM 30.9 °F - 28.9 °F 92% 29.83 in 10.0 mi Calm Calm - N/A   Mostly Cloudy
2:53 AM 30.0 °F - 28.9 °F 96% 29.83 in 10.0 mi Calm Calm - N/A   Clear
3:53 AM 37.0 °F 32.4 °F 33.1 °F 86% 29.81 in 10.0 mi ENE 5.8 mph - N/A   Overcast
4:53 AM 37.0 °F 31.6 °F 32.0 °F 82% 29.80 in 10.0 mi ENE 6.9 mph - N/A   Mostly Cloudy
5:53 AM 33.1 °F - 30.0 °F 89% 29.80 in 10.0 mi Calm Calm - N/A   Clear
6:53 AM 30.9 °F - 28.9 °F 92% 29.79 in 10.0 mi Calm Calm - N/A   Scattered Clouds
7:53 AM 28.9 °F - 26.1 °F 89% 29.78 in 10.0 mi Calm Calm - N/A   Partly Cloudy
8:53 AM 28.0 °F 22.8 °F 26.1 °F 92% 29.77 in 10.0 mi SSW 4.6 mph - N/A   Clear
9:53 AM 32.0 °F - 28.9 °F 88% 29.77 in 10.0 mi Calm Calm - N/A   Clear
10:53 AM 37.0 °F - 30.9 °F 79% 29.76 in 10.0 mi Calm Calm - N/A   Clear
11:53 AM 41.0 °F - 33.1 °F 73% 29.75 in 10.0 mi Calm Calm - N/A   Clear
12:53 PM 46.0 °F 41.9 °F 33.1 °F 61% 29.72 in 10.0 mi East 8.1 mph - N/A   Clear
1:53 PM 48.0 °F - 33.1 °F 56% 29.71 in 10.0 mi ENE 11.5 mph - N/A   Clear
2:53 PM 46.0 °F 42.5 °F 33.1 °F 61% 29.69 in 10.0 mi ENE 6.9 mph - N/A   Clear
3:53 PM 46.9 °F - 34.0 °F 61% 29.66 in 10.0 mi ENE 8.1 mph - N/A   Overcast
4:53 PM 46.0 °F 43.9 °F 35.1 °F 66% 29.65 in 10.0 mi South 4.6 mph - N/A   Mostly Cloudy
5:53 PM 48.0 °F - 34.0 °F 58% 29.62 in 10.0 mi East 6.9 mph - N/A   Overcast
6:53 PM 48.0 °F - 34.0 °F 58% 29.62 in 10.0 mi ENE 11.5 mph - N/A   Overcast
8:53 PM 43.0 °F 40.3 °F 33.1 °F 68% 29.62 in 10.0 mi ENE 4.6 mph - N/A   Overcast
9:53 PM 39.0 °F 36.8 °F 32.0 °F 76% 29.60 in 10.0 mi North 3.5 mph - N/A   Overcast
10:53 PM 37.0 °F - 30.9 °F 79% 29.61 in 10.0 mi Calm Calm - N/A   Overcast
11:53 PM 43.0 °F 40.3 °F 33.1 °F 68% 29.60 in 10.0 mi NNE 4.6 mph - N/A   Overcast